User: anonymous
Location: Mentone
(34.5413°N, 85.5351°W)
Time: 08:09:21
(UTC-05:00)
Language:

Cosmos 2150 Rocket - Orbit

View from above orbital plane
View from above orbital plane
View from above satellite
View from above satellite

Ground track
Ground track

The orbit data is extracted from the following two-line orbital elements,

1 21419U 91041B   14210.72736837  .00000079  00000-0  37765-4 0  5841
2 21419 074.0400 066.0048 0042039 250.5847 153.3764 14.33550271209491
Epoch (UTC): 29 July 2014 17:27:24
Eccentricity: 0.0042039
inclination: 74.0400°
perigee height: 750 km
apogee height: 810 km
right ascension of ascending node: 66.0048°
argument of perigee: 250.5847°
revolutions per day: 14.33550271
mean anomaly at epoch: 153.3764°
orbit number at epoch: 20949

The dashed part of the orbit path shows where the satellite is in the earth's shadow,  

DLR